www.pogodaiklimat.ru

Погода и климат >> Архив погоды >> Казахстан >> Тайпак


ПОГОДА в Тайпаке

АРХИВ ПОГОДЫ в Тайпаке

Время (UTC), дата Ветер
(напр.,м/с)
 
Видим.   Явления Облачность Т
(С)
Тd
(С)
f
(%)
Тe
(С)
Тes
(С)
Комфортность P
(гПа)
Po
(гПа)
Тmin
(С)
Tmax
(С)
R
(мм)
R24
(мм)
S
(см)
21 15.04 СЗ 1 н/о ясно +2.3 -4.2 62 +1 +1 1022.9 1022.7
00 16.04 СЗ 2 н/о ясно +1.6 -3.6 68 -1 -1 1022.1 1021.9
03 16.04 З 2 10 км ясно +2.8 -2.5 68 0 +1 1021.9 1021.7
06 16.04 З 3 10 км ясно +13.2 -1.7 36 +12 +20 1022.1 1021.9 +0.2
09 16.04 СЗ 4 10 км 8/8 1000 м
[Cu med, cong]
+14.7 -2.5 30 +14 +16 1021.3 1021.1
12 16.04 СЗ 2 10 км 8/8 1000 м
[Cu med, cong]
+15.2 -2.0 31 +15 +17 1020.1 1019.9
15 16.04 З 2 10 км 6/0
[Ac trans]
+13.5 -0.4 38 +13 +13 1019.5 1019.3 +17.1
18 16.04 З 2 н/о ясно +7.4 -0.5 57 +6 +6 1020.1 1019.9 +17.1
21 16.04 З 2 н/о ясно +5.1 -1.2 64 +3 +3 1019.9 1019.7
00 17.04 СЗ 3 н/о ясно +3.6 -2.1 66 0 0 1019.7 1019.5
03 17.04 З 2 10 км ясно +3.8 -1.6 68 +1 +2 1019.8 1019.6
06 17.04 З 1 10 км ясно +16.5 -1.9 28 +18 +29 1020.3 1020.1 +2.4
09 17.04 З 5 10 км ясно +19.0 -1.8 24 +19 +26 1019.7 1019.5
12 17.04 З 5 10 км 4/4 1000 м
[Cu med, cong]
+20.0 -2.6 22 +20 +22 1019.0 1018.8
15 17.04 З 4 10 км 4/0
[Ac trans]
+16.6 -0.1 32 +16 +16 1018.5 1018.3 +20.2
18 17.04 З 2 н/о ясно +10.3 +0.4 50 +9 +9 1019.6 1019.4 +20.2
21 17.04 З 2 н/о ясно +7.2 -0.1 60 +5 +5 1020.0 1019.8
00 18.04 СЗ 3 н/о ясно +5.0 -0.1 70 +2 +2 1020.6 1020.4
03 18.04 З 3 10 км 6/0
[Ac trans]
+7.5 +0.6 62 +5 +6 1020.5 1020.3
06 18.04 З 4 10 км ясно +18.9 -0.4 27 +19 +26 1020.6 1020.4 +4.5
09 18.04 З 3 10 км 9/0
[Ac trans]
+20.3 -0.7 24 +21 +26 комфорт 1019.5 1019.3
12 18.04 З 5 10 км 9/0
[Ac trans]
+19.6 +0.6 28 +20 +21 1018.5 1018.3
15 18.04 Ю 1 10 км слабый ливневой дождь 10/10 600 м
[Cb calv]
+14.5 +8.5 67 +15 +15 1017.7 1017.5 +20.6
18 18.04 Ю 4 н/о {ливн. осадки} 10/10 600 м
[Cb calv]
+13.5 +7.8 68 +12 +12 1017.4 1017.2 +20.6 0.0
21 18.04 Ю 3 н/о 10/10 600 м
[Cb calv]
+11.4 +9.2 86 +10 +10 1015.9 1015.7
00 19.04 ЮЗ 4 н/о 10/10 600 м
[Cb calv]
+10.4 +5.3 71 +8 +8 1014.6 1014.4
03 19.04 ЮЗ 6 10 км 10/10 600 м
[Cb calv]
+9.4 +3.6 67 +6 +6 1013.6 1013.4
06 19.04 Ю 5 10 км 10/10 600 м
[Cb calv]
+11.6 +5.3 65 +9 +9 1012.3 1012.1 +9.3 0.0
09 19.04 ЮВ 6 10 км 10/10 600 м
[Cb calv]
+12.9 +4.8 58 +11 +11 1010.3 1010.1
12 19.04 Ю 7 10 км 10/10 600 м
[Cb calv]
+14.0 +3.9 51 +12 +12 1009.4 1009.2
15 19.04 Ю 6 10 км в посл. час ливневой дождь 10/10 600 м
[Cb calv]
+11.9 +7.3 73 +9 +9 1007.8 1007.6 +14.7
18 19.04 Ю 4 н/о {ливн. осадки} 9/9 600 м
[Cb calv]
+10.7 +6.9 77 +8 +8 1006.4 1006.2 +14.7 0.0
21 19.04 Ю 2 н/о слабый ливневой дождь 10/10 600 м
[Cb calv]
+9.3 +9.3 100 +7 +7 1004.4 1004.2
00 20.04 Ю 1 н/о {ливн. осадки} 10/10 600 м
[Cb calv]
+8.8 +8.8 100 +8 +8 1003.1 1002.9
03 20.04 Ю 2 4000 м в посл. час туман 10/10 600 м
[St]
+8.4 +8.4 100 +6 +6 1002.0 1001.8
06 20.04 Ю 3 10 км в посл. час ливневой дождь {туман} 10/10 600 м
[Cb calv]
+10.4 +10.4 100 +8 +8 1001.4 1001.2 +8.3 0.0
09 20.04 Ю 6 10 км 9/9 600 м
[Cb calv]
+15.9 +9.1 64 +15 +15 1001.1 1000.9
12 20.04 ЮЗ 5 10 км слабый ливневой дождь 10/10 600 м
[Cb calv]
+12.8 +9.7 81 +11 +11 1000.8 1000.6
15 20.04 ЮЗ 4 10 км {ливн. осадки} 10/10 600 м
[Cb calv]
+13.0 +9.5 79 +11 +11 1000.7 1000.5 +17.1
18 20.04 ЮЗ 1 н/о слабый ливневой дождь 10/10 600 м
[Cb calv]
+10.2 +10.2 100 +10 +10 1001.5 1001.3 +17.1 0.4
21 20.04 ЮЗ 2 н/о {ливн. осадки} 10/10 600 м
[Cb calv]
+8.9 +8.9 100 +7 +7 1001.2 1001.0
00 21.04 ЮЗ 3 н/о {ливн. осадки} 10/10 600 м
[Cb calv]
+8.6 +8.6 100 +6 +6 1001.0 1000.8
03 21.04 З 3 10 км 10/10 600 м
[Cb calv]
+9.1 +9.1 100 +6 +6 1001.6 1001.4
06 21.04 СЗ 5 10 км в посл. час ливневой дождь 10/10 600 м
[Cb calv]
+8.4 +8.4 100 +5 +5 1003.7 1003.5 +8.5 2
09 21.04 З 5 10 км 10/10 600 м
[Cb calv]
+9.4 +9.4 100 +6 +6 1005.0 1004.8
12 21.04 СЗ 4 10 км 8/8 1000 м
[Cu med, cong]
+13.7 +6.4 61 +12 +13 1004.9 1004.7
15 21.04 СЗ 4 10 км 8/0
[Ac trans]
+12.0 +1.5 49 +10 +10 1005.8 1005.6 +14.3
18 21.04 СЗ 3 н/о ясно +5.0 -0.6 67 +2 +2 1007.6 1007.4 +14.3 0.0
21 21.04 СЗ 2 н/о ясно +1.6 -0.9 83 -2 -2 1007.8 1007.6
00 22.04 СЗ 2 н/о ясно -0.9 -0.9 100 -5 -5 1007.1 1006.9
03 22.04 ЮЗ 4 10 км ясно +2.9 +1.6 91 -2 -1 1006.0 1005.8
06 22.04 ЮЗ 7 10 км 3/0
[Ci fib]
+13.6 +1.5 44 +11 +14 1003.8 1003.6 -1.3
09 22.04 ЮЗ 15 10 км 8/8 1000 м
[Cu med, cong]
+17.9 +1.7 34 +16 +16 1001.3 1001.1
12 22.04 ЮЗ 15 10 км {ливн. осадки} 9/9 600 м
[Cb calv]
+17.0 +2.5 38 +15 +15 999.7 999.5
15 22.04 ЮЗ 8
{20}
10 км {ливн. осадки} 8/8 600 м
[Cb calv]
+11.6 +11.6 100 +8 +8 1000.7 1000.5 +18.3
18 22.04 ЮЗ 2 н/о {ливн. осадки} 6/0
[Ac trans]
+7.5 +7.5 100 +5 +5 1001.9 1001.7 +18.3 0.4

 

Местоположение метеостанции Тайпак (Западно-Казахстанская область, Казахстан): широта 49.05 долгота 51.87 высота над уровнем моря 2 м.

В архиве по умолчанию представлена погода в Тайпаке за последнюю неделю. Архивные данные за месяц целиком и за предыдущие месяцы, начиная с января 2011 года, Вы можете получить, выбрав интересующий диапазон дат из раскрывающегося списка и нажав кнопку "Ввод!".


*Определитесь, кто Вы:
робот инопланетянин человек

Внимание! Время в таблицах - всемирное. Для получения местного времени необходимо прибавить поправку, которая в Тайпаке равна 5 ч.

Смотрите также архив погоды в соседних городах и на ближайших метеорологических станциях:

Погода в Индерборском (Атырауская область, Казахстан) (62 км)
Погода в Карабау (Атырауская область, Казахстан) (102 км)
Погода в Жангала (Западно-Казахстанская область, Казахстан) (116 км)
Погода в Каратобе (Западно-Казахстанская область, Казахстан) (131 км)
Погода в Чапаево (Западно-Казахстанская область, Казахстан) (137 км)
Погода в Джамбейты (Западно-Казахстанская область, Казахстан) (143 км)
Погода в Махамбете (Атырауская область, Казахстан) (155 км)
Погода в Жалпактале (Западно-Казахстанская область, Казахстан) (186 км)
Погода в Макате (Атырауская область, Казахстан) (189 км)
Погода в Анкаты (Западно-Казахстанская область, Казахстан) (198 км)

Пояснения к столбцам:

Ветер - указаны скорость ветра в м/с - средняя за 10 мин, порывы в срок и между сроками (в фигурных скобках) и направление, откуда дует ветер: С - северный, СВ - северо-восточный, В - восточный, ЮВ - юго-восточный, Ю - южный, ЮЗ - юго-западный, З - западный, СЗ - северо-западный.
Видимость - горизонтальная дальность видимости в метрах или километрах. При видимости от 1 до 10 км при отсутствии осадков обычно наблюдается дымка, при ухудшении видимости до 1 км и менее - туман. В сухую погоду видимость может ухудшаться дымом, пылью или мглою.
Явления - указаны атмосферные явления, наблюдавшиеся в срок или в последний час перед сроком; фигурными скобками обозначены явления, наблюдавшиеся между сроками (за 1-3 часа до срока); квадратными скобками обозначены град или гололедные отложения с указанием их диаметра в мм.
Облачность - указаны через наклонную черту общая и нижняя облачность в баллах и высота нижней границы облаков в метрах; квадратными скобками обозначены формы облаков: Ci - перистые, Cs - перисто-слоистые, Cc - перисто-кучевые, Ac - высококучевые, As - высокослоистые, Sc - слоисто-кучевые, Ns - слоисто-дождевые, Cu - кучевые, Cb - кучево-дождевые. Подробнее классификацию облаков см. в Атласе облаков (PDF).
T - Температура воздуха - температура, измеренная на высоте 2 м над землей.
Td - Температура точки росы - температура, при понижении до которой содержащийся в воздухе водяной пар достигнет насыщения.
f - Относительная влажность воздуха - влажноcть воздуха, измеренная на высоте 2 м над землей.
Te - Эффективная температура - температура, которую ощущает одетый по сезону человек в тени. Характеристика душности погоды. При расчете учитывается влияние влажности воздуха и скорости ветра на теплоощущения человека.
Tes - Эффективная температура на солнце - температура, которую ощущает человек, с поправкой на солнечный нагрев. Характеристика знойности погоды. Зависит от высоты солнца над горизонтом, облачности и скорости ветра. Ночью, в пасмурную погоду, а также при ветре 12 м/с и более поправка равна нулю.
P - Атмосферное давление - приведенное к уровню моря атмосферное давление.
Po - Атмосферное давление - измеренное на уровне метеостанции атмосферное давление.
Tmin - Минимальная температура - минимум температуры воздуха на высоте 2 м над землей.
Tmax - Максимальная температура - максимум температуры воздуха на высоте 2 м над землей.
R - Количество осадков - Количество выпавших осадков за период времени, мм. При наведении курсора мыши на число - период времени, за который выпало указанное количество осадков.
R24 - Количество осадков - Количество выпавших осадков за 24 часа, мм.
S - Снежный покров - Высота снежного покрова, см. При наведении курсора мыши на число - состояние снежного покрова и степень покрытия местности в баллах.